User: anonymous   Login
Location: ??????????
(54.4061°N, 22.6114°E)
Time: 11:59:44
(UTC+00:00)
Language:

ATLAS 3B R/B - Orbit

View from above orbital plane
View from above orbital plane
View from above satellite
View from above satellite

Ground track
Ground track

The orbit data is extracted from the following two-line orbital elements,

1 28538U 05004B   19337.72303004 0.00000000  00000-0  00000-0 0    00
2 28538  63.8326 189.2860 0090059  75.4742 284.5258 13.43127715    00
Epoch (UTC): 03 December 2019 17:21:09
Eccentricity: 0.0090059
inclination: 63.8326°
perigee height: 1030 km
apogee height: 1165 km
right ascension of ascending node: 189.2860°
argument of perigee: 75.4742°
revolutions per day: 13.43127715
mean anomaly at epoch: 284.5258°
orbit number at epoch: 0

The dashed part of the orbit path shows where the satellite is in the earth's shadow,  

DLR